This demonstration page uses our WeatherBlox Daily Observations layout. Learn more.

Left ArrowRight Arrow

Hourly Observations for September 5, 2017

Temp ( °F °C ) Dew Point ( °F °C ) Humidity (%) Winds ( mph kmh ) Pressure ( in mb ) Visibility ( mi km ) Precip ( " mm )
12:54 am 00:54 Clear 62 16.7 52 11.1 70 70 NNW 7 11 30.14 1021 10 16.0934 0 0
1:54 am 01:54 Clear 59 15 50 10 72 72 NNW 7 11 30.14 1021 10 16.0934 0 0
2:54 am 02:54 Clear 58 14.4 48 8.9 70 70 NW 7 11 30.14 1021 10 16.0934 0 0
3:54 am 03:54 Clear 57 13.9 47 8.3 69 69 NNW 7 11 30.15 1021 10 16.0934 0 0
4:54 am 04:54 Clear 56 13.3 45 7.2 67 67 NNW 10 17 30.15 1021 10 16.0934 0 0
5:54 am 05:54 Clear 56 13.3 44 6.7 65 65 NW 7 11 30.16 1021 10 16.0934 0 0
6:54 am 06:54 Clear 55 12.8 43 6.1 64 64 NW 7 11 30.18 1022 10 16.0934 0 0
7:54 am 07:54 Sunny 56 13.3 44 6.7 65 65 NNW 9 15 30.2 1023 10 16.0934 0 0
8:54 am 08:54 Sunny 60 15.6 44 6.7 56 56 NNW 16 26 30.21 1023 10 16.0934 0 0
9:54 am 09:54 Sunny 64 17.8 46 7.8 52 52 NNW 13 20 30.21 1023 10 16.0934 0 0
10:54 am 10:54 Sunny 68 20 45 7.2 44 44 NW 13 20 30.22 1023 10 16.0934 0 0
11:54 am 11:54 Sunny 70 21.1 43 6.1 38 38 NW 18 30 30.21 1023 10 16.0934 0 0
12:54 pm 12:54 Mostly Sunny 70 21.1 41 5 35 35 N 18 30 30.21 1023 10 16.0934 0 0
1:54 pm 13:54 Mostly Sunny 70 21.1 41 5 35 35 NNW 23 37 30.19 1023 10 16.0934 0 0
2:54 pm 14:54 Sunny 71 21.7 39 3.9 31 31 N 17 28 30.18 1022 10 16.0934 0 0
3:54 pm 15:54 Mostly Sunny 69 20.6 39 3.9 33 33 NNW 22 35 30.17 1022 10 16.0934 0 0
4:54 pm 16:54 Mostly Cloudy 69 20.6 39 3.9 33 33 N 20 31 30.16 1022 10 16.0934 0 0
5:54 pm 17:54 Sunny 70 21.1 41 5 35 35 NNW 13 20 30.16 1021 10 16.0934 0 0
6:54 pm 18:54 Partly Cloudy 68 20 41 5 38 38 NNW 14 22 30.16 1021 10 16.0934 0 0
7:54 pm 19:54 Clear 62 16.7 44 6.7 52 52 N 6 9 30.16 1022 10 16.0934 0 0
8:54 pm 20:54 Clear 61 16.1 45 7.2 56 56 NW 3 6 30.17 1022 10 16.0934 0 0
9:54 pm 21:54 Clear 58 14.4 45 7.2 62 62 Calm 30.19 1022 10 16.0934 0 0
10:54 pm 22:54 Clear 49 9.4 45 7.2 86 86 Calm 30.19 1022 10 16.0934 0 0
11:54 pm 23:54 Clear 48 8.9 45 7.2 89 89 N 3 6 30.19 1023 10 16.0934 0 0

Powered by AerisWeather